TRANSIT 5B-1 DEB, 2097

Orbit data source: Space-Track

TRANSIT 5B-1 DEB, 2097 is space debris in LEO originally from a launch on Sat, 28 Sep 1963 UTC launched from the Air Force Western Test Range (AFWTR). Debris objects in space refer to the collection of defunct objects orbiting the Earth. Examples of debris include non-operational satellites, rocket bodies, and fragments generated from explosions, collisions, or faulty payload assembly.

Loading next visibility...
Identifier
2097, 1963-038G
Orbit
LEO
Country
Flag of USUS
Related business
Manufacturer
Unknown
Mission
Spacecraft
Bus & Motor
Unknown
Mass
Unknown
Launch date (UTC)
1963-09-28 (62 years ago)
Launch vehicle
Unknown
Launch site
Air Force Western Test Range (AFWTR)
Object type
Payload
Rocket body
Debris
Shape & HBR
Unknown shape, 0.1 m
Radar Cross Section
Small (<0.1 m²)

Expand to show TLE details & history
Last TLE update: 7 hours ago

TLE from 7 hours ago
0 TRANSIT 5B-1 DEB
1 02097U 63038G   25296.57327389  .00000997  00000-0  11918-2 0  9993
2 02097  90.0039 338.1726 0040713 174.6121 339.7856 13.66120611 67313
Epoch: 2025-10-23T13:45Z
TLE epoch observation values (Epoch: 2025-10-23T13:45:30.864Z)
Latitude
25.79434°
Longitude
-80.43471°
Altitude
988.504 km
Speed
7.374 km/s
True Right ascension
10h 32m 41s
True Declination
25° 39' 51"
Sunlit
Object was in daylight at epoch
Visualization orbit readout
Latitude
Unknown
Longitude
Unknown
Altitude
Unknown
Speed
Unknown
Apparent Right ascension
Unknown
Apparent Declination
Unknown
Sunlit
N/A
Visualization observer readout
Local Sidereal Time
15:48:09
Azimuth
Unknown
Elevation
Unknown
Doppler factor
Unknown
Orbital elements
Apogee altitude
1,040.639 km
Perigee altitude
980.476 km
Semi-major axis
7,388.695 km
Eccentricity
0.00407
Inclination
90.0039°
RAAN
338.1726°
Arg. of periapsis
174.6121°
True anomaly
339.62362°
Mean anomaly
339.7856°
Eccentric anomaly
339.70469°
Mean motion
3.41737 °/min
Orbital period
105.34 mins
BSTAR
0.0011918
Loading maneuver chart data...
Computing Atmospheric mass density...

Documentation

Showing up to 5 results
|